Location: Ahstedt
(52.2048°N, 10.1060°E)
Time: 00:45:09
(UTC+00:00)

Cosmos 2366 rocket - Pass Details

Date: 18 January 2026
Orbit: 955 x 996 km, 82.9° (Epoch: 18 February)

Event Time Altitude Azimuth Distance (km) Brightness Sun altitude
Rises 05:53:48 0° 188° (S) 3,642 7.1 -12.6°
Reaches altitude 10° 05:56:17 10° 189° (S) 2,705 6.4 -12.2°
Maximum altitude 06:02:29 89° 272° (W) 985 4.0 -11.3°
Drops below altitude 10° 06:08:50 10° 10° (N) 2,752 6.3 -10.4°
Sets 06:11:22 0° 11° (N) 3,710 6.9 -10.0°
